| time (UTC) | temp F | wind direction | speed knots | gust knots | rain 1hr in | rain 24hr in | rain mn in | humidity % | barometer mb |
| 20260905193753 | 98 | 90 | 1.7 | 6.1 | 0.00 | 0.00 | 0.00 | 38 | 1010.2 |
| 20260905192739 | 98 | 333 | 0.9 | 7.0 | 0.00 | 0.00 | 0.00 | 38 | 1010.3 |
| 20260905190549 | 99 | 200 | 1.7 | 4.3 | 0.00 | 0.00 | 0.00 | 39 | 1010.7 |
| 20260905185534 | 98 | 161 | 0.9 | 5.2 | 0.00 | 0.00 | 0.00 | 40 | 1010.9 |
| 20260905184551 | 98 | 187 | 1.7 | 7.0 | 0.00 | 0.00 | 0.00 | 40 | 1011.1 |
| 20260905182419 | 97 | 133 | 1.7 | 4.3 | 0.00 | 0.00 | 0.00 | 40 | 1011.4 |
| 20260905181420 | 97 | 196 | 0.9 | 6.1 | 0.00 | 0.00 | 0.00 | 41 | 1011.5 |
| 20260905180401 | 97 | 126 | 0.9 | 7.0 | 0.00 | 0.00 | 0.00 | 41 | 1011.7 |
| 20260905175331 | 96 | 46 | 1.7 | 7.0 | 0.00 | 0.00 | 0.00 | 44 | 1011.9 |
| 20260905174350 | 96 | 201 | 1.7 | 4.3 | 0.00 | 0.00 | 0.00 | 43 | 1012.0 |
| 20260905172233 | 96 | 261 | 1.7 | 7.0 | 0.00 | 0.00 | 0.00 | 47 | 1012.1 |
| 20260905171204 | 95 | 229 | 0.9 | 5.2 | 0.00 | 0.00 | 0.00 | 46 | 1012.2 |
| 20260905170224 | 95 | 219 | 0.9 | 4.3 | 0.00 | 0.00 | 0.00 | 44 | 1012.3 |
| 20260905165230 | 94 | 119 | 0.9 | 6.1 | 0.00 | 0.00 | 0.00 | 47 | 1012.3 |
| 20260905164218 | 93 | 43 | 0.9 | 6.1 | 0.00 | 0.00 | 0.00 | 46 | 1012.5 |
| 20260905163201 | 94 | 144 | 0.9 | 3.5 | 0.00 | 0.00 | 0.00 | 46 | 1012.4 |
| 20260905155902 | 92 | 246 | 0.0 | 2.6 | 0.00 | 0.00 | 0.00 | 52 | 1012.4 |
| 20260905154833 | 90 | 238 | 0.9 | 3.5 | 0.00 | 0.00 | 0.00 | 53 | 1012.6 |
| 20260905153805 | 91 | 286 | 0.9 | 3.5 | 0.00 | 0.00 | 0.00 | 53 | 1012.6 |
| 20260905152820 | 90 | 208 | 0.9 | 3.5 | 0.00 | 0.00 | 0.00 | 56 | 1012.4 |
| 20260905151746 | 89 | 161 | 0.9 | 4.3 | 0.00 | 0.00 | 0.00 | 58 | 1012.5 |
| 20260905150732 | 89 | 232 | 0.9 | 4.3 | 0.00 | 0.00 | 0.00 | 59 | 1012.4 |
| 20260905145741 | 88 | 273 | 0.9 | 2.6 | 0.00 | 0.00 | 0.00 | 61 | 1012.3 |
| 20260905144726 | 87 | 294 | 0.9 | 4.3 | 0.00 | 0.00 | 0.00 | 62 | 1012.4 |
| 20260905143652 | 86 | 147 | 0.9 | 4.3 | 0.00 | 0.00 | 0.00 | 65 | 1012.4 |
| 20260905142622 | 85 | 224 | 0.9 | 4.3 | 0.00 | 0.00 | 0.00 | 67 | 1012.4 |
| 20260905141626 | 84 | 242 | 0.9 | 2.6 | 0.00 | 0.00 | 0.00 | 69 | 1012.4 |
| 20260905140629 | 84 | 244 | 0.0 | 2.6 | 0.00 | 0.00 | 0.00 | 71 | 1012.3 |
| 20260905135616 | 82 | 213 | 0.0 | 1.7 | 0.00 | 0.00 | 0.00 | 75 | 1012.4 |
| 20260905132255 | 77 | 47 | 0.0 | 0.0 | 0.00 | 0.00 | 0.00 | 84 | 1012.2 |
| 20260905131234 | 76 | 22 | 0.0 | 0.0 | 0.00 | 0.00 | 0.00 | 85 | 1012.1 |
| 20260905130212 | 75 | 15 | 0.0 | 0.0 | 0.00 | 0.00 | 0.00 | 85 | 1012.0 |
| 20260905125140 | 75 | 100 | 0.0 | 0.0 | 0.00 | 0.00 | 0.00 | 84 | 1011.9 |
| 20260905124202 | 75 | 100 | 0.0 | 0.0 | 0.00 | 0.00 | 0.00 | 84 | 1011.8 |
| 20260905122109 | 74 | 128 | 0.0 | 0.0 | 0.00 | 0.00 | 0.00 | 84 | 1011.6 |
| 20260905115944 | 74 | 128 | 0.0 | 0.0 | 0.00 | 0.00 | 0.00 | 83 | 1011.4 |
| 20260905114954 | 75 | 128 | 0.0 | 0.0 | 0.00 | 0.00 | 0.00 | 82 | 1011.4 |
| 20260905113938 | 75 | 128 | 0.0 | 0.0 | 0.00 | 0.00 | 0.00 | 82 | 1011.3 |
| 20260905112937 | 75 | 128 | 0.0 | 0.0 | 0.00 | 0.00 | 0.00 | 82 | 1011.3 |
| 20260905111929 | 75 | 128 | 0.0 | 0.0 | 0.00 | 0.00 | 0.00 | 81 | 1011.2 |
| 20260905110918 | 75 | 128 | 0.0 | 0.0 | 0.00 | 0.00 | 0.00 | 81 | 1011.2 |
| 20260905104716 | 76 | 128 | 0.0 | 0.0 | 0.00 | 0.00 | 0.00 | 80 | 1011.3 |
| 20260905103729 | 76 | 128 | 0.0 | 0.0 | 0.00 | 0.00 | 0.00 | 80 | 1011.3 |
| 20260905102723 | 76 | 128 | 0.0 | 0.0 | 0.00 | 0.00 | 0.00 | 80 | 1011.3 |
| 20260905095519 | 77 | 128 | 0.0 | 0.0 | 0.00 | 0.00 | 0.00 | 78 | 1011.5 |
| 20260905094537 | 77 | 128 | 0.0 | 0.0 | 0.00 | 0.00 | 0.00 | 78 | 1011.3 |
| 20260905092412 | 77 | 128 | 0.0 | 0.0 | 0.00 | 0.00 | 0.00 | 76 | 1011.1 |
| 20260905091407 | 78 | 128 | 0.0 | 0.0 | 0.00 | 0.00 | 0.00 | 76 | 1011.1 |
| 20260905090428 | 78 | 128 | 0.0 | 0.0 | 0.00 | 0.00 | 0.00 | 75 | 1011.0 |
| 20260905084340 | 79 | 128 | 0.0 | 0.0 | 0.00 | 0.00 | 0.00 | 74 | 1010.9 |
| 20260905083342 | 79 | 128 | 0.0 | 0.0 | 0.00 | 0.00 | 0.00 | 73 | 1010.9 |
| 20260905082338 | 79 | 128 | 0.0 | 0.0 | 0.00 | 0.00 | 0.00 | 72 | 1010.9 |
| 20260905081332 | 80 | 128 | 0.0 | 0.0 | 0.00 | 0.00 | 0.00 | 72 | 1011.0 |
| 20260905080333 | 80 | 128 | 0.0 | 0.0 | 0.00 | 0.00 | 0.00 | 71 | 1010.9 |
| 20260905074151 | 80 | 128 | 0.0 | 0.0 | 0.00 | 0.00 | 0.00 | 71 | 1010.9 |
| 20260905073157 | 81 | 128 | 0.0 | 0.0 | 0.00 | 0.00 | 0.00 | 71 | 1011.0 |
| 20260905072208 | 81 | 128 | 0.0 | 0.0 | 0.00 | 0.00 | 0.00 | 68 | 1011.1 |
| 20260905071230 | 81 | 128 | 0.0 | 0.0 | 0.00 | 0.00 | 0.00 | 68 | 1011.2 |
| 20260905070211 | 82 | 128 | 0.0 | 0.0 | 0.00 | 0.00 | 0.00 | 67 | 1011.2 |
| 20260905065228 | 82 | 128 | 0.0 | 0.0 | 0.00 | 0.00 | 0.00 | 66 | 1011.2 |
| 20260905064235 | 83 | 128 | 0.0 | 0.0 | 0.00 | 0.00 | 0.00 | 65 | 1011.2 |
| 20260905063218 | 84 | 128 | 0.0 | 0.0 | 0.00 | 0.00 | 0.00 | 64 | 1011.2 |
| 20260905062216 | 85 | 128 | 0.0 | 0.0 | 0.00 | 0.00 | 0.00 | 63 | 1011.3 |
| 20260905061153 | 85 | 128 | 0.0 | 0.0 | 0.00 | 0.00 | 0.00 | 61 | 1011.3 |
| 20260905060150 | 86 | 128 | 0.0 | 0.0 | 0.00 | 0.00 | 0.00 | 60 | 1011.2 |
| 20260905055210 | 86 | 128 | 0.0 | 0.9 | 0.00 | 0.00 | 0.00 | 59 | 1011.1 |
| 20260905054139 | 86 | 128 | 0.0 | 2.6 | 0.00 | 0.00 | 0.00 | 59 | 1011.0 |
| 20260905053106 | 87 | 128 | 0.0 | 1.7 | 0.00 | 0.00 | 0.00 | 58 | 1011.0 |
| 20260905052112 | 87 | 174 | 0.0 | 0.9 | 0.00 | 0.00 | 0.00 | 58 | 1010.9 |
| 20260905051127 | 87 | 141 | 0.0 | 1.7 | 0.00 | 0.00 | 0.00 | 57 | 1010.8 |
| 20260905050146 | 88 | 134 | 0.0 | 6.1 | 0.00 | 0.00 | 0.00 | 56 | 1010.7 |
| 20260905045112 | 88 | 138 | 0.0 | 6.1 | 0.00 | 0.00 | 0.00 | 56 | 1010.8 |
| 20260905044057 | 89 | 159 | 0.0 | 2.6 | 0.00 | 0.00 | 0.00 | 55 | 1010.7 |
| 20260905043048 | 89 | 175 | 0.0 | 0.0 | 0.00 | 0.00 | 0.00 | 54 | 1010.8 |
| 20260905042025 | 89 | 169 | 0.9 | 3.5 | 0.00 | 0.00 | 0.00 | 52 | 1010.7 |
| 20260905041043 | 89 | 123 | 0.9 | 5.2 | 0.00 | 0.00 | 0.00 | 51 | 1010.8 |
| 20260905040028 | 89 | 130 | 0.0 | 5.2 | 0.00 | 0.00 | 0.00 | 50 | 1010.9 |
| 20260905035020 | 89 | 126 | 0.0 | 2.6 | 0.00 | 0.00 | 0.00 | 49 | 1010.8 |
| 20260905034024 | 89 | 140 | 0.0 | 3.5 | 0.00 | 0.00 | 0.00 | 49 | 1010.8 |
| 20260905031800 | 90 | 156 | 0.0 | 2.6 | 0.00 | 0.00 | 0.00 | 49 | 1010.6 |
| 20260905030810 | 90 | 157 | 0.0 | 1.7 | 0.00 | 0.00 | 0.00 | 49 | 1010.5 |
| 20260905025813 | 90 | 156 | 0.0 | 0.0 | 0.00 | 0.00 | 0.00 | 48 | 1010.5 |
| 20260905024822 | 91 | 157 | 0.0 | 1.7 | 0.00 | 0.00 | 0.00 | 48 | 1010.4 |
| 20260905023839 | 91 | 150 | 0.0 | 2.6 | 0.00 | 0.00 | 0.00 | 48 | 1010.2 |
| 20260905022802 | 91 | 175 | 0.0 | 2.6 | 0.00 | 0.00 | 0.00 | 47 | 1010.1 |
| 20260905021811 | 92 | 158 | 0.0 | 4.3 | 0.00 | 0.00 | 0.00 | 47 | 1010.0 |
| 20260905020736 | 92 | 143 | 0.0 | 4.3 | 0.00 | 0.00 | 0.00 | 47 | 1009.8 |
| 20260905014627 | 92 | 175 | 0.0 | 4.3 | 0.00 | 0.00 | 0.00 | 47 | 1009.5 |
| 20260905012456 | 93 | 235 | 0.9 | 3.5 | 0.00 | 0.00 | 0.00 | 46 | 1009.2 |
| 20260905011434 | 93 | 147 | 0.9 | 4.3 | 0.00 | 0.00 | 0.00 | 46 | 1009.1 |
| 20260905010429 | 94 | 145 | 0.9 | 4.3 | 0.00 | 0.00 | 0.00 | 46 | 1009.1 |
| 20260905004305 | 95 | 127 | 0.9 | 4.3 | 0.00 | 0.00 | 0.00 | 43 | 1008.8 |
| 20260905003326 | 96 | 109 | 0.9 | 4.3 | 0.00 | 0.00 | 0.00 | 42 | 1008.7 |
| 20260905002325 | 96 | 112 | 0.9 | 5.2 | 0.00 | 0.00 | 0.00 | 41 | 1008.6 |
| 20260905001342 | 97 | 158 | 0.0 | 5.2 | 0.00 | 0.00 | 0.00 | 40 | 1008.5 |
| 20260904235123 | 98 | 232 | 0.9 | 4.3 | 0.00 | 0.00 | 0.00 | 39 | 1008.4 |
| 20260904234131 | 98 | 186 | 0.9 | 5.2 | 0.00 | 0.00 | 0.00 | 37 | 1008.5 |
| 20260904232020 | 99 | 152 | 0.9 | 7.0 | 0.00 | 0.00 | 0.00 | 37 | 1008.5 |
| 20260904231023 | 99 | 134 | 0.9 | 7.0 | 0.00 | 0.00 | 0.00 | 38 | 1008.5 |
| 20260904230002 | 98 | 115 | 0.9 | 4.3 | 0.00 | 0.00 | 0.00 | 37 | 1008.5 |
| 20260904224935 | 98 | 134 | 0.9 | 7.0 | 0.00 | 0.00 | 0.00 | 38 | 1008.6 |
| 20260904223924 | 98 | 156 | 1.7 | 7.0 | 0.00 | 0.00 | 0.00 | 38 | 1008.7 |
| 20260904222849 | 97 | 155 | 0.9 | 5.2 | 0.00 | 0.00 | 0.00 | 40 | 1008.7 |
| 20260904221907 | 97 | 134 | 0.9 | 3.5 | 0.00 | 0.00 | 0.00 | 40 | 1008.8 |
| 20260904220923 | 98 | 116 | 2.6 | 8.7 | 0.00 | 0.00 | 0.00 | 40 | 1008.8 |
| 20260904215918 | 98 | 112 | 1.7 | 8.7 | 0.00 | 0.00 | 0.00 | 40 | 1008.9 |
| 20260904214854 | 98 | 214 | 2.6 | 7.8 | 0.00 | 0.00 | 0.00 | 39 | 1009.0 |
| 20260904213847 | 99 | 175 | 2.6 | 7.8 | 0.00 | 0.00 | 0.00 | 38 | 1009.0 |
| 20260904211756 | 100 | 110 | 1.7 | 9.6 | 0.00 | 0.00 | 0.00 | 38 | 1009.3 |
| 20260904210744 | 100 | 204 | 1.7 | 9.6 | 0.00 | 0.00 | 0.00 | 38 | 1009.3 |
| 20260904205709 | 100 | 152 | 1.7 | 7.0 | 0.00 | 0.00 | 0.00 | 38 | 1009.5 |
| 20260904204642 | 99 | 257 | 2.6 | 7.0 | 0.00 | 0.00 | 0.00 | 39 | 1009.6 |
| 20260904203643 | 99 | 171 | 1.7 | 7.0 | 0.00 | 0.00 | 0.00 | 40 | 1009.7 |
| 20260904200358 | 98 | 242 | 1.7 | 9.6 | 0.00 | 0.00 | 0.00 | 42 | 1010.1 |
| 20260904195352 | 98 | 176 | 2.6 | 9.6 | 0.00 | 0.00 | 0.00 | 43 | 1010.2 |
| 20260904194356 | 98 | 216 | 1.7 | 7.8 | 0.00 | 0.00 | 0.00 | 43 | 1010.3 |